Flag for U.S.A. Weather past 2 weeks in Costa Mesa, California, U.S.A.

Now
68 °F

Clear.


Feels Like: 68 °F
Forecast: 58 / 81 °F
Wind: No wind

Location: John Wayne Airport-Orange County Airport

Current Time: Apr 28, 2015 at 12:34:55 AM

Latest Report: Apr 27, 2015 at 11:53 PM


Visibility: 10 mi

Pressure: 29.96 "Hg

Humidity: 30%

Dew point: 35 °F

Location of Costa MesaLocation

Historic Weather in Costa Mesa — Graph

°F

Costa Mesa temperature yesterday

Maximum temperature yesterday: 87 °F (at 11:53 AM)
Minimum temperature yesterday: 55 °F (at 5:53 AM)
Average temperature yesterday: 72 °F

Past Weeks' High & Low Weather Summary

 TemperatureHumidityPressure
High87 °F (Apr 27, 11:53 AM)94% (Apr 24, 9:58 AM)30.11 "Hg (Apr 24, 9:58 AM)
Low54 °F (Apr 26, 2:53 AM)6% (Apr 16, 10:53 AM)29.85 "Hg (Apr 20, 5:53 PM)
Average64 °F58%29.95 "Hg
* Reported Apr 12 10:53 PM — Apr 27 10:53 PM, Costa Mesa, Weather by CustomWeather, © 2015

Note: Actual official high and low records may vary slightly from our data, if they occured in-between our weather recording intervals... More about our weather records

Advertising

Costa Mesa weather history for previous 24 hours

 ConditionsComfort  
Time TempWeatherWind HumidityBarometerVisibility
10:53 PM
Mon, Apr 27
70 °FClear.3 mph25%29.95 "Hg10 mi
9:53 PM72 °FClear.No wind22%29.95 "Hg10 mi
8:53 PM72 °FClear.No wind25%29.93 "Hg10 mi
7:53 PM75 °FSunny.3 mph20%29.90 "Hg10 mi
6:53 PM78 °FSunny.8 mph16%29.88 "Hg10 mi
5:53 PM81 °FSunny.8 mph13%29.87 "Hg10 mi
4:53 PM82 °FSunny.12 mph13%29.86 "Hg10 mi
3:53 PM84 °FSunny.8 mph12%29.87 "Hg10 mi
2:53 PM83 °FSunny.10 mph15%29.88 "Hg10 mi
1:53 PM80 °FSunny.12 mph23%29.90 "Hg10 mi
12:53 PM79 °FSunny.9 mph28%29.91 "Hg10 mi
11:53 AM87 °FSunny.20 mph6%29.92 "Hg10 mi
10:53 AM84 °FPassing clouds.16 mph7%29.93 "Hg10 mi
9:53 AM81 °FPassing clouds.21 mph9%29.94 "Hg10 mi
8:53 AM79 °FPassing clouds.16 mph10%29.93 "Hg10 mi
7:53 AM62 °FPassing clouds.No wind62%29.94 "Hg10 mi
6:53 AM57 °FPassing clouds.No wind72%29.93 "Hg10 mi
5:53 AM55 °FPassing clouds.3 mph74%29.91 "Hg10 mi
4:53 AM56 °FClear.No wind75%29.91 "Hg10 mi
3:53 AM57 °FClear.No wind67%29.91 "Hg10 mi
2:53 AM58 °FClear.No wind62%29.90 "Hg10 mi
1:53 AM59 °FClear.3 mph64%29.92 "Hg10 mi
12:53 AM59 °FClear.No wind67%29.92 "Hg10 mi
Weather by CustomWeather, © 2015

See weather overviewHow to use our weather pages